sat.trackr.live / text

‹ back to catalog

STARLINK-5947

NORAD 55989 · 2023-042D

PAYLOAD ACTIVE UNKNOWN

§ Identity

Operator
Country
US
Launch date
2023-03-24
Launch site
AFETR
Launch vehicle
Mass (kg)
RCS (m²)

Purposes: comms

External: N2YO · Heavens-Above · Gunter

§ Orbital elements

Epoch: 2026-09-20T19:50:34.073664Z

Period
94.27 min
Inclination
43.0054°
Eccentricity
0.0001746
Mean motion
15.27570826 rev/d
Perigee alt
481.9 km
Apogee alt
484.3 km
Semi-major
6,861.2 km
B*
-2.5809e-5
RAAN
37.5382°
Arg perigee
282.7998°
Mean anomaly
77.2658°
Rev number
19,271

§ Raw data

STARLINK-59471 55989U 23042D   26263.82678326 -.00000972  00000+0 -25809-4 0  99952 55989  43.0054  37.5382 0001746 282.7998  77.2658 15.27570826192713

JSON: /api/v1/satellites/55989 · /tle

For live sub-satellite position, see the globe view (requires WebGL).

§ Visibility from observer

Set your observer location to see the next 7 days of passes ≥ 10°. The values pass through the URL so the page stays shareable.

No JS? Fill the form by hand. The geolocation button needs JavaScript.